COSMOS 2251 DEB, 47068

Orbit data source: Space-Track

COSMOS 2251 DEB, 47068 is space debris in LEO originally from a launch on Wed, 16 Jun 1993 UTC launched from the Plesetsk Missile And Space Complex (PKMTR). The debris from Iridium 33, an American commercial communications satellite, has been tracked extensively since its accidental collision with the defunct Russian satellite Cosmos 2251 in 2009. This event, occurring at high speed in low Earth orbit (LEO), generated thousands of pieces of space debris, significantly increasing the risk of further collisions. The Iridium 33 debris cloud has impacted space traffic management and orbital debris mitigation strategies, making it a subject of ongoing study in space situational awareness.

Loading next visibility...
Identifier
47068, 1993-036BXY
Orbit
LEO
Country
Flag of CISCIS
Related business
Manufacturer
Unknown
Mission
Spacecraft
Bus & Motor
Unknown
Mass
Unknown
Launch date (UTC)
1993-06-16 (32 years ago)
Launch vehicle
Unknown
Launch site
Plesetsk Missile And Space Complex (PKMTR)
Object type
Payload
Rocket body
Debris
Shape & HBR
Unknown shape, 0.1 m
Radar Cross Section
Small (<0.1 m²)

Expand to show TLE details & history
Last TLE update: 2 days ago

TLE from 2 days ago
0 COSMOS 2251 DEB
1 47068U 93036BXY 25294.29864852  .00005913  00000-0  14502-2 0  9994
2 47068  74.0242 302.4670 0017090  35.8758 324.3547 14.52525803609953
Epoch: 2025-10-21T07:10Z
TLE epoch observation values (Epoch: 2025-10-21T07:10:03.232Z)
Latitude
-0.00005°
Longitude
164.96491°
Altitude
710.192 km
Speed
7.506 km/s
True Right ascension
20h 09m 52s
True Declination
0° 00' 00"
Sunlit
Object was in daylight at epoch
Visualization orbit readout
Latitude
Unknown
Longitude
Unknown
Altitude
Unknown
Speed
Unknown
Apparent Right ascension
Unknown
Apparent Declination
Unknown
Sunlit
N/A
Visualization observer readout
Local Sidereal Time
10:44:31
Azimuth
Unknown
Elevation
Unknown
Doppler factor
Unknown
Orbital elements
Apogee altitude
727.14 km
Perigee altitude
702.895 km
Semi-major axis
7,093.155 km
Eccentricity
0.00171
Inclination
74.0242°
RAAN
302.467°
Arg. of periapsis
35.8758°
True anomaly
324.24037°
Mean anomaly
324.3547°
Eccentric anomaly
324.29756°
Mean motion
3.63316 °/min
Orbital period
99.09 mins
BSTAR
0.0014502
Loading maneuver chart data...
Computing Atmospheric mass density...

Documentation

Showing up to 5 results
|